| time (UTC) | temp F | wind direction | speed knots | gust knots | rain 1hr in | rain 24hr in | rain mn in | humidity % | barometer mb |
| 20260510011600 | 72 | 193 | 4.3 | 7.8 | 0.00 | 0.00 | 0.00 | 70 | 1026.2 |
| 20260510010016 | 72 | 183 | 4.3 | 8.7 | 0.00 | 0.00 | 0.00 | 72 | 1026.3 |
| 20260510004548 | 70 | 163 | 2.6 | 8.7 | 0.00 | 0.00 | 0.00 | 75 | 1026.4 |
| 20260510003010 | 68 | 169 | 1.7 | 9.6 | 0.00 | 0.00 | 0.00 | 78 | 1026.9 |
| 20260510001534 | 69 | 227 | 4.3 | 7.8 | 0.00 | 0.00 | 0.00 | 79 | 1027.1 |
| 20260510000059 | 68 | 209 | 2.6 | 7.8 | 0.00 | 0.00 | 0.00 | 78 | 1027.1 |
| 20260509234530 | 68 | 182 | 4.3 | 9.6 | 0.00 | 0.00 | 0.00 | 75 | 1027.1 |
| 20260509233048 | 68 | 181 | 3.5 | 7.0 | 0.00 | 0.00 | 0.00 | 73 | 1027.3 |
| 20260509231541 | 69 | 174 | 4.3 | 10.4 | 0.00 | 0.00 | 0.00 | 71 | 1026.9 |
| 20260509230030 | 68 | 188 | 5.2 | 10.4 | 0.00 | 0.00 | 0.00 | 71 | 1026.7 |
| 20260509224552 | 68 | 181 | 3.5 | 9.6 | 0.00 | 0.00 | 0.00 | 70 | 1026.8 |
| 20260509223027 | 67 | 158 | 3.5 | 7.0 | 0.00 | 0.00 | 0.00 | 72 | 1026.7 |
| 20260509221540 | 66 | 176 | 2.6 | 7.0 | 0.00 | 0.00 | 0.00 | 74 | 1026.5 |
| 20260509220056 | 64 | 186 | 3.5 | 7.0 | 0.00 | 0.00 | 0.00 | 75 | 1026.4 |
| 20260509214512 | 63 | 212 | 2.6 | 7.0 | 0.00 | 0.00 | 0.00 | 77 | 1026.2 |
| 20260509213032 | 61 | 179 | 2.6 | 3.5 | 0.00 | 0.00 | 0.00 | 83 | 1026.0 |
| 20260509211607 | 60 | 200 | 0.0 | 2.6 | 0.00 | 0.00 | 0.00 | 86 | 1025.9 |
| 20260509210031 | 59 | 183 | 0.0 | 1.7 | 0.00 | 0.00 | 0.00 | 86 | 1025.5 |
| 20260509204604 | 59 | 183 | 0.0 | 1.7 | 0.00 | 0.00 | 0.00 | 86 | 1025.5 |
| 20260509203040 | 59 | 127 | 0.0 | 0.0 | 0.00 | 0.00 | 0.00 | 85 | 1025.3 |
| 20260509201550 | 59 | 118 | 0.0 | 0.0 | 0.00 | 0.00 | 0.00 | 85 | 1025.2 |
| 20260509200011 | 59 | 184 | 0.0 | 2.6 | 0.00 | 0.00 | 0.00 | 86 | 1024.8 |
| 20260509194547 | 58 | 197 | 0.9 | 3.5 | 0.00 | 0.00 | 0.00 | 86 | 1024.8 |
| 20260509193006 | 58 | 186 | 3.5 | 4.3 | 0.00 | 0.00 | 0.00 | 86 | 1024.7 |
| 20260509191540 | 58 | 171 | 0.9 | 4.3 | 0.00 | 0.00 | 0.00 | 86 | 1024.7 |
| 20260509190043 | 58 | 193 | 0.9 | 2.6 | 0.00 | 0.00 | 0.00 | 86 | 1024.4 |
| 20260509184527 | 58 | 190 | 0.0 | 4.3 | 0.00 | 0.00 | 0.00 | 87 | 1024.4 |
| 20260509183022 | 58 | 192 | 2.6 | 5.2 | 0.00 | 0.00 | 0.00 | 88 | 1024.1 |
| 20260509181507 | 57 | 195 | 2.6 | 4.3 | 0.00 | 0.00 | 0.00 | 89 | 1024.0 |
| 20260509180053 | 57 | 198 | 2.6 | 4.3 | 0.00 | 0.00 | 0.00 | 90 | 1023.8 |
| 20260509174537 | 56 | 189 | 1.7 | 3.5 | 0.00 | 0.00 | 0.00 | 91 | 1023.8 |
| 20260509173001 | 56 | 195 | 1.7 | 3.5 | 0.00 | 0.00 | 0.00 | 92 | 1023.7 |
| 20260509171529 | 56 | 205 | 0.9 | 1.7 | 0.00 | 0.00 | 0.00 | 92 | 1023.7 |
| 20260509170059 | 56 | 209 | 0.0 | 3.5 | 0.00 | 0.00 | 0.00 | 92 | 1023.7 |
| 20260509164519 | 56 | 200 | 0.0 | 0.0 | 0.00 | 0.00 | 0.00 | 93 | 1023.7 |
| 20260509163018 | 56 | 193 | 0.0 | 0.0 | 0.00 | 0.00 | 0.00 | 93 | 1023.7 |
| 20260509161557 | 56 | 177 | 0.0 | 1.7 | 0.00 | 0.00 | 0.00 | 93 | 1023.8 |
| 20260509160031 | 55 | 174 | 0.0 | 0.9 | 0.00 | 0.00 | 0.00 | 93 | 1024.0 |
| 20260509154503 | 55 | 173 | 0.0 | 0.9 | 0.00 | 0.00 | 0.00 | 93 | 1023.8 |
| 20260509153025 | 56 | 169 | 0.0 | 0.9 | 0.00 | 0.00 | 0.00 | 93 | 1024.0 |
| 20260509151547 | 56 | 169 | 0.0 | 0.9 | 0.00 | 0.00 | 0.00 | 93 | 1024.1 |
| 20260509150013 | 55 | 158 | 0.0 | 1.7 | 0.00 | 0.00 | 0.00 | 93 | 1024.2 |
| 20260509144541 | 55 | 155 | 0.0 | 0.0 | 0.00 | 0.00 | 0.00 | 92 | 1024.3 |
| 20260509143003 | 55 | 155 | 0.0 | 0.0 | 0.00 | 0.00 | 0.00 | 92 | 1024.5 |
| 20260509141518 | 56 | 155 | 0.0 | 0.0 | 0.00 | 0.00 | 0.00 | 92 | 1024.6 |
| 20260509140041 | 56 | 155 | 0.0 | 0.0 | 0.00 | 0.00 | 0.00 | 92 | 1024.7 |
| 20260509134600 | 56 | 155 | 0.0 | 0.0 | 0.00 | 0.00 | 0.00 | 92 | 1024.7 |
| 20260509133037 | 56 | 155 | 0.0 | 0.0 | 0.00 | 0.00 | 0.00 | 92 | 1024.8 |
| 20260509131503 | 56 | 155 | 0.0 | 0.0 | 0.00 | 0.00 | 0.00 | 91 | 1024.8 |
| 20260509130036 | 56 | 155 | 0.0 | 0.0 | 0.00 | 0.00 | 0.00 | 91 | 1024.8 |
| 20260509124514 | 57 | 155 | 0.0 | 0.0 | 0.00 | 0.00 | 0.00 | 91 | 1024.8 |
| 20260509123047 | 57 | 155 | 0.0 | 0.0 | 0.00 | 0.00 | 0.00 | 91 | 1025.0 |
| 20260509121512 | 57 | 155 | 0.0 | 0.0 | 0.00 | 0.00 | 0.00 | 91 | 1025.0 |
| 20260509120046 | 57 | 155 | 0.0 | 0.0 | 0.00 | 0.00 | 0.00 | 90 | 1025.0 |
| 20260509114521 | 57 | 155 | 0.0 | 0.0 | 0.00 | 0.00 | 0.00 | 90 | 1024.9 |
| 20260509113052 | 58 | 155 | 0.0 | 0.0 | 0.00 | 0.00 | 0.00 | 89 | 1024.9 |
| 20260509111525 | 58 | 155 | 0.0 | 0.0 | 0.00 | 0.00 | 0.00 | 89 | 1025.0 |
| 20260509110055 | 58 | 155 | 0.0 | 0.0 | 0.00 | 0.00 | 0.00 | 89 | 1025.0 |
| 20260509104519 | 59 | 155 | 0.0 | 0.0 | 0.00 | 0.00 | 0.00 | 88 | 1024.9 |
| 20260509103051 | 59 | 155 | 0.0 | 0.0 | 0.00 | 0.00 | 0.00 | 88 | 1024.9 |
| 20260509101528 | 59 | 155 | 0.0 | 0.0 | 0.00 | 0.00 | 0.00 | 87 | 1024.8 |
| 20260509094513 | 60 | 155 | 0.0 | 0.0 | 0.00 | 0.00 | 0.00 | 86 | 1024.7 |
| 20260509093041 | 60 | 155 | 0.0 | 0.9 | 0.00 | 0.00 | 0.00 | 85 | 1024.6 |
| 20260509091535 | 61 | 155 | 0.0 | 0.0 | 0.00 | 0.00 | 0.00 | 84 | 1024.3 |
| 20260509090058 | 61 | 155 | 0.0 | 0.9 | 0.00 | 0.00 | 0.00 | 82 | 1024.2 |
| 20260509084528 | 63 | 155 | 0.0 | 0.0 | 0.00 | 0.00 | 0.00 | 81 | 1024.0 |
| 20260509083021 | 64 | 155 | 0.0 | 0.0 | 0.00 | 0.00 | 0.00 | 78 | 1023.9 |
| 20260509081547 | 65 | 155 | 0.0 | 0.0 | 0.00 | 0.00 | 0.00 | 75 | 1023.9 |
| 20260509080035 | 66 | 155 | 0.0 | 0.9 | 0.00 | 0.00 | 0.00 | 74 | 1023.6 |
| 20260509074557 | 67 | 155 | 0.0 | 1.7 | 0.00 | 0.00 | 0.00 | 71 | 1023.4 |
| 20260509073103 | 68 | 183 | 0.0 | 1.7 | 0.00 | 0.00 | 0.00 | 70 | 1023.2 |
| 20260509071503 | 69 | 193 | 0.9 | 4.3 | 0.00 | 0.00 | 0.00 | 66 | 1023.2 |
| 20260509070034 | 70 | 174 | 1.7 | 3.5 | 0.00 | 0.00 | 0.00 | 65 | 1023.1 |
| 20260509064501 | 70 | 176 | 1.7 | 5.2 | 0.00 | 0.00 | 0.00 | 63 | 1022.9 |
| 20260509063037 | 71 | 160 | 2.6 | 5.2 | 0.00 | 0.00 | 0.00 | 62 | 1022.9 |
| 20260509061504 | 71 | 176 | 2.6 | 5.2 | 0.00 | 0.00 | 0.00 | 62 | 1022.5 |
| 20260509060039 | 72 | 166 | 3.5 | 7.8 | 0.00 | 0.00 | 0.00 | 60 | 1022.4 |
| 20260509054500 | 72 | 161 | 3.5 | 7.8 | 0.00 | 0.00 | 0.00 | 60 | 1022.3 |
| 20260509053032 | 72 | 142 | 2.6 | 9.6 | 0.00 | 0.00 | 0.00 | 60 | 1022.3 |
| 20260509051602 | 73 | 173 | 3.5 | 8.7 | 0.00 | 0.00 | 0.00 | 59 | 1022.1 |
| 20260509050035 | 72 | 108 | 3.5 | 8.7 | 0.00 | 0.00 | 0.00 | 59 | 1022.1 |
| 20260509044526 | 73 | 114 | 2.6 | 10.4 | 0.00 | 0.00 | 0.00 | 60 | 1022.1 |
| 20260509043035 | 73 | 110 | 4.3 | 9.6 | 0.00 | 0.00 | 0.00 | 59 | 1022.2 |
| 20260509041509 | 73 | 174 | 3.5 | 9.6 | 0.00 | 0.00 | 0.00 | 59 | 1022.3 |
| 20260509040104 | 73 | 150 | 4.3 | 9.6 | 0.00 | 0.00 | 0.00 | 58 | 1022.1 |
| 20260509040001 | 73 | 172 | 4.3 | 9.6 | 0.00 | 0.00 | 0.00 | 58 | 1022.1 |
| 20260509034547 | 73 | 124 | 4.3 | 12.2 | 0.00 | 0.00 | 0.00 | 58 | 1022.2 |
| 20260509033040 | 73 | 113 | 4.3 | 8.7 | 0.00 | 0.00 | 0.00 | 60 | 1022.2 |
| 20260509031509 | 73 | 168 | 3.5 | 11.3 | 0.00 | 0.00 | 0.00 | 58 | 1022.2 |
| 20260509030041 | 73 | 103 | 4.3 | 8.7 | 0.00 | 0.00 | 0.00 | 58 | 1022.5 |
| 20260509024553 | 72 | 175 | 4.3 | 10.4 | 0.00 | 0.00 | 0.00 | 60 | 1022.5 |
| 20260509023040 | 73 | 112 | 7.0 | 13.0 | 0.00 | 0.00 | 0.00 | 61 | 1022.6 |
| 20260509021515 | 73 | 115 | 3.5 | 10.4 | 0.00 | 0.00 | 0.00 | 59 | 1022.8 |
| 20260509020036 | 74 | 185 | 3.5 | 10.4 | 0.00 | 0.00 | 0.00 | 58 | 1022.9 |
| 20260509014556 | 74 | 118 | 2.6 | 9.6 | 0.00 | 0.00 | 0.00 | 59 | 1023.0 |
| 20260509013037 | 73 | 103 | 3.5 | 8.7 | 0.00 | 0.00 | 0.00 | 60 | 1023.0 |